TimeCDT,TemperatureF,Dew PointF,Humidity,Sea Level PressureIn,VisibilityMPH,Wind Direction,Wind SpeedMPH,Gust SpeedMPH,PrecipitationIn,Events,Conditions,WindDirDegrees,DateUTC
12:52 AM,81.0,46.9,30,29.80,10.0,SSE,8.1,-,N/A,,Clear,160,2013-09-26 05:52:00
1:52 AM,78.1,46.9,33,29.80,10.0,SSE,3.5,-,N/A,,Clear,160,2013-09-26 06:52:00
2:52 AM,75.9,48.0,37,29.80,10.0,Calm,Calm,-,N/A,,Clear,0,2013-09-26 07:52:00
3:52 AM,75.9,48.9,38,29.80,10.0,East,3.5,-,N/A,,Clear,80,2013-09-26 08:52:00
4:52 AM,73.9,48.9,41,29.79,10.0,ESE,3.5,-,N/A,,Clear,110,2013-09-26 09:52:00
5:52 AM,73.9,48.9,41,29.80,10.0,Calm,Calm,-,N/A,,Clear,0,2013-09-26 10:52:00
6:52 AM,73.9,53.1,48,29.82,10.0,Calm,Calm,-,N/A,,Clear,0,2013-09-26 11:52:00
7:52 AM,73.9,54.0,50,29.84,10.0,Calm,Calm,-,N/A,,Clear,0,2013-09-26 12:52:00
8:52 AM,77.0,55.9,48,29.86,10.0,SSE,3.5,-,N/A,,Clear,150,2013-09-26 13:52:00
9:52 AM,82.0,57.0,42,29.87,10.0,Calm,Calm,-,N/A,,Clear,0,2013-09-26 14:52:00
10:52 AM,90.0,54.0,29,29.88,10.0,South,11.5,-,N/A,,Clear,190,2013-09-26 15:52:00
11:52 AM,91.9,54.0,27,29.88,10.0,South,17.3,-,N/A,,Clear,190,2013-09-26 16:52:00
12:52 PM,93.9,54.0,26,29.87,10.0,SSE,13.8,24.2,N/A,,Clear,160,2013-09-26 17:52:00
1:52 PM,93.9,54.0,26,29.85,10.0,SSE,17.3,-,N/A,,Clear,150,2013-09-26 18:52:00
2:52 PM,95.0,53.1,24,29.83,10.0,South,17.3,21.9,N/A,,Clear,170,2013-09-26 19:52:00
3:52 PM,95.0,48.0,20,29.82,10.0,SSE,12.7,-,N/A,,Clear,160,2013-09-26 20:52:00
4:52 PM,93.9,48.0,21,29.82,10.0,SSE,16.1,21.9,N/A,,Clear,150,2013-09-26 21:52:00
5:52 PM,93.0,46.9,20,29.82,10.0,SSE,16.1,-,N/A,,Clear,150,2013-09-26 22:52:00
6:52 PM,91.0,48.9,23,29.82,10.0,SSE,16.1,-,N/A,,Clear,160,2013-09-26 23:52:00
7:52 PM,87.1,48.9,27,29.82,10.0,SSE,8.1,-,N/A,,Clear,150,2013-09-27 00:52:00
8:52 PM,84.9,48.9,29,29.84,10.0,SSE,6.9,-,N/A,,Clear,150,2013-09-27 01:52:00
9:52 PM,82.9,51.1,33,29.85,10.0,SE,6.9,-,N/A,,Clear,140,2013-09-27 02:52:00
10:52 PM,82.0,51.1,34,29.86,10.0,SE,8.1,-,N/A,,Clear,140,2013-09-27 03:52:00
11:52 PM,77.0,53.1,43,29.87,10.0,SSE,3.5,-,N/A,,Clear,160,2013-09-27 04:52:00